Domov               UVHVVR             MKGP            O straneh              
ZDRAVSTVENO VARSTVO RASTLIN
  MREŽA AGROMET. POSTAJ
 ► PROGNOSTIČNA OBVESTILA
AGROMETEOROLOŠKI PODATKI -
ARSO
OBVLADOVANJE TVEGANJ ZARADI
NEUGODNIH VREMENSKIH RAZMER
  ► NARAVNE NESREČE
  ► SUŠA/MOČA
  ► NAMAKANJE
  ► ŽLED (gozdarstvo)
KARTOGRAFSKI PRIKAZI
SPLETNE POVEZAVE
PROJEKTI IN PUBLIKACIJE

AGROMETEOROLOŠKA MREŽA: VREMENSKE POSTAJE IN FENOLOŠKA OPAZOVANJA

Pregled podatkov za lokacijo Drenov grič, meteorološka postaja 39324

Pregled senzorjev na lokaciji

ID Ime Zadnja
vrednost
Datum
zadnje
spremembe
Tip
senzorja
3811 Padavine (mm) 0 mm 14.12.2017 06:30 Rain-O-Matic
3812 Temperatura 2 m (°C) 5,27 °C 14.12.2017 06:30 50YA
3813 Relativna vlaga 2 m (% RH) 86,06 % RH 14.12.2017 06:30 50YA
3814 Omočenost lista (U) 0 U 14.12.2017 06:30 A730WET

Pregled podatkov zadnjih 24 ur

Zap.
št.
Datum in čas Drenov grič
Omočenost
lista
Padavine Relativna
vlaga
2
m
Temperatura
2
m
0 14.12.2017 06:30 0 0 86,06 5,27
1 14.12.2017 06:00 0 0 87,06 5,23
2 14.12.2017 05:30 0 0 87,57 5,15
3 14.12.2017 05:00 0 0 87,64 5,1
4 14.12.2017 04:30 0 0 88,28 4,98
5 14.12.2017 04:00 0 0 89,08 4,71
6 14.12.2017 03:30 0 0 89,6 4,66
7 14.12.2017 03:00 0 0 95,26 3,13
8 14.12.2017 02:30 0 0 97,05 2,83
9 14.12.2017 02:00 0 0 98,71 1,86
10 14.12.2017 01:30 0 0 98,73 1,15
11 14.12.2017 01:00 0 0 98,8 1,1
12 14.12.2017 00:30 0 0 98,9 0,83
13 14.12.2017 00:00 0 0 98,88 0,93
14 13.12.2017 23:30 0 0 98,75 0,85
15 13.12.2017 23:00 0 0 98,66 0,83
16 13.12.2017 22:30 0 0 98,61 0,81
17 13.12.2017 22:00 0 0 98,46 0,76
18 13.12.2017 21:30 0,2 98,17 0,66
19 13.12.2017 21:00 0,2 97,9 0,83
20 13.12.2017 20:30 0,2 97,39 0,95
21 13.12.2017 20:00 0,2 97,14 1,51
22 13.12.2017 19:30 0 0 97,09 1,61
23 13.12.2017 19:00 0 0 97,53 1,56
24 13.12.2017 18:30 0 0 97,88 1,49
25 13.12.2017 18:00 0 0 97,9 1,39
26 13.12.2017 17:30 0 0 97,56 1,51
27 13.12.2017 17:00 0 0 97,68 1,44
28 13.12.2017 16:30 0 0 97,7 1,37
29 13.12.2017 16:00 0 0 97,78 1,42
30 13.12.2017 15:30 0,2 97,9 1,47
31 13.12.2017 15:00 0 0 97,92 1,34
32 13.12.2017 14:30 0,4 97,85 1,2
33 13.12.2017 14:00 0,2 97,95 1,03
34 13.12.2017 13:30 0,6 97,7 0,95
35 13.12.2017 13:00 0,2 96,8 0,71
36 13.12.2017 12:30 1 94,26 1,59
37 13.12.2017 12:00 0,8 94,6 1,54
38 13.12.2017 11:30 1,2 93,09 1,68
39 13.12.2017 11:00 0,4 92,21 2,22
40 13.12.2017 10:30 0,2 93,82 2,15
41 13.12.2017 10:00 0,2 93,94 2,03
42 13.12.2017 09:30 0,2 93,94 1,93
43 13.12.2017 09:00 0,4 94,11 1,93
44 13.12.2017 08:30 0,2 94,19 1,81
45 13.12.2017 08:00 0,2 94,46 1,66
46 13.12.2017 07:30 0,2 94,82 1,54
© 2011 Ministrstvo za kmetijstvo, gozdarstvo in prehrano. Vse pravice pridržane.